TimePDT,TemperatureF,Dew PointF,Humidity,Sea Level PressureIn,VisibilityMPH,Wind Direction,Wind SpeedMPH,Gust SpeedMPH,PrecipitationIn,Events,Conditions,WindDirDegrees,DateUTC
12:52 AM,66.9,44.1,44,29.96,10.0,WNW,3.5,-,N/A,,Clear,300,2013-05-09 07:52:00
1:52 AM,64.0,39.9,41,29.97,10.0,NW,8.1,-,N/A,,Clear,320,2013-05-09 08:52:00
2:52 AM,63.0,42.1,46,29.98,10.0,Calm,Calm,-,N/A,,Clear,0,2013-05-09 09:52:00
3:52 AM,57.0,39.9,53,29.99,10.0,Calm,Calm,-,N/A,,Clear,0,2013-05-09 10:52:00
4:52 AM,54.0,42.1,64,30.00,10.0,NNE,3.5,-,N/A,,Clear,20,2013-05-09 11:52:00
5:52 AM,53.1,42.1,66,30.01,10.0,Calm,Calm,-,N/A,,Clear,0,2013-05-09 12:52:00
6:52 AM,57.0,44.1,62,30.04,10.0,Calm,Calm,-,N/A,,Clear,0,2013-05-09 13:52:00
7:52 AM,63.0,46.0,54,30.06,10.0,Calm,Calm,-,N/A,,Clear,0,2013-05-09 14:52:00
8:52 AM,72.0,41.0,33,30.06,10.0,Calm,Calm,-,N/A,,Clear,0,2013-05-09 15:52:00
9:52 AM,78.1,35.1,21,30.05,10.0,Calm,Calm,-,N/A,,Clear,0,2013-05-09 16:52:00
10:52 AM,81.0,33.1,18,30.05,10.0,Variable,3.5,-,N/A,,Clear,0,2013-05-09 17:52:00
11:52 AM,84.9,32.0,15,30.04,10.0,SSW,6.9,-,N/A,,Clear,200,2013-05-09 18:52:00
12:52 PM,87.8,30.2,13,30.05,10.0,SW,6.9,-,N/A,,Clear,220,2013-05-09 19:52:00
1:52 PM,89.1,33.1,14,30.02,10.0,SSW,9.2,-,N/A,,Clear,210,2013-05-09 20:52:00
2:52 PM,91.0,30.9,12,30.01,10.0,WSW,9.2,-,N/A,,Clear,240,2013-05-09 21:52:00
3:52 PM,91.9,28.0,10,29.99,10.0,Variable,4.6,-,N/A,,Clear,0,2013-05-09 22:52:00
4:52 PM,93.2,32.0,11,29.99,10.0,SW,11.5,-,N/A,,Clear,220,2013-05-09 23:52:00
5:52 PM,91.0,30.0,11,29.96,10.0,SW,8.1,-,N/A,,Clear,230,2013-05-10 00:52:00
6:52 PM,89.6,28.4,11,29.97,10.0,SW,4.6,-,N/A,,Clear,220,2013-05-10 01:52:00
7:52 PM,88.0,28.9,12,29.96,10.0,SW,3.5,-,N/A,,Clear,230,2013-05-10 02:52:00
8:52 PM,84.0,34.0,17,29.97,10.0,SSW,6.9,-,N/A,,Clear,200,2013-05-10 03:52:00
9:52 PM,80.6,42.8,26,30.01,10.0,South,4.6,-,N/A,,Clear,190,2013-05-10 04:52:00
10:52 PM,73.0,42.1,33,30.00,10.0,ENE,5.8,-,N/A,,Clear,70,2013-05-10 05:52:00
11:52 PM,71.1,43.0,36,30.01,10.0,Calm,Calm,-,N/A,,Clear,0,2013-05-10 06:52:00